Volver al catálogo

SL-12 DEB

ActivoHEO
NORAD 23297·DEBRIS·🇷🇺 Russia

Lanzado Dec 24, 1985 desde Baikonur Cosmodrome

Loading…

Próximos Pases (próximas 24 horas)

TLE

ActualizadoSource: Space-Track

Época: Sep 14, 2026, 05:24 UTC

1 23297U 85118U   26257.22509796 -.00000052  00000-0  00000-0 0  9996
2 23297  67.4598 326.5121 4953448 142.6148 265.2174  4.68572833564252

Sigue SL-12 DEB en tiempo real con AllMySat

Download on the App Store